Hourly Data Report for June 17, 2006

TORONTO CITY
ONTARIO

43°40'00.000" N
79°24'00.000" W
112.50 m
6158355
71508
XTO

Download Data

Hourly Data (June 2006)
Hourly Data Report for June 17, 2006
TIME
LST
Temp Definition
°C
Dew Point Definition
°C
Rel Hum Definition
%
Precip. Amount Definition
mm

Wind Dir Definition
10's deg

Wind Spd Definition
km/h
Visibility Definition
km
Stn Press Definition
kPa
Hmdx Definition


Wind Chill Definition


Weather Definition


00:00 19.9 12.6 63   LegendMM LegendMM   100.28     LegendNANA
01:00 20.0 13.4 66   LegendMM LegendMM   100.32     LegendNANA
02:00 21.1 13.1 60   LegendMM LegendMM   100.29     LegendNANA
03:00 20.0 13.6 67   LegendMM LegendMM   100.25     LegendNANA
04:00 19.9 13.8 68   LegendMM LegendMM   100.24     LegendNANA
05:00 19.5 14.0 71   LegendMM LegendMM   100.25     LegendNANA
06:00 20.5 14.8 70   LegendMM LegendMM   100.27     LegendNANA
07:00 21.4 15.8 70   LegendMM LegendMM   100.28 26   LegendNANA
08:00 25.5 17.7 62   LegendMM LegendMM   100.27 31   LegendNANA
09:00 28.4 18.8 56   LegendMM LegendMM   100.21 35   LegendNANA
10:00 29.9 18.9 52   LegendMM LegendMM   100.20 37   LegendNANA
11:00 31.1 19.0 49   LegendMM LegendMM   100.20 38   LegendNANA
12:00 29.9 18.6 51   LegendMM LegendMM   100.18 36   LegendNANA
13:00 30.5 19.3 51   LegendMM LegendMM   100.17 38   LegendNANA
14:00 30.6 20.1 54   LegendMM LegendMM   100.14 38   LegendNANA
15:00 31.7 19.0 47   LegendMM LegendMM   100.09 38   LegendNANA
16:00 30.6 17.9 47   LegendMM LegendMM   100.07 37   LegendNANA
17:00 28.5 18.1 53   LegendMM LegendMM   100.04 35   LegendNANA
18:00 27.5 16.5 51   LegendMM LegendMM   100.04 32   LegendNANA
19:00 27.1 15.4 49   LegendMM LegendMM   100.04 31   LegendNANA
20:00 27.0 13.6 44   LegendMM LegendMM   100.04 30   LegendNANA
21:00 26.4 14.2 47   LegendMM LegendMM   100.05 30   LegendNANA
22:00 25.5 15.1 53   LegendMM LegendMM   100.11 30   LegendNANA
23:00 23.1 15.3 61   LegendMM LegendMM   100.14 27   LegendNANA

Notes on Data Quality.

Legend

  • E = Estimated
  • M = Missing
  • NA = Not Available*
  • [empty] = Indicates an unobserved value
Date modified: